sat.trackr.live / text

‹ back to catalog

COSMOS 2457 (733)

NORAD 36112 · 2009-070B

PAYLOAD ACTIVE UNKNOWN

§ Identity

Operator
Country
CIS
Launch date
2009-12-14
Launch site
TYMSC
Launch vehicle
Mass (kg)
RCS (m²)
6.31

Purposes: nav

External: N2YO · Heavens-Above · Gunter

§ Orbital elements

Epoch: 2026-05-24T11:01:15.076992Z

Period
675.74 min
Inclination
64.9840°
Eccentricity
0.0001878
Mean motion
2.13100931 rev/d
Perigee alt
19,125.2 km
Apogee alt
19,134.8 km
Semi-major
25,508.1 km
B*
0.0000e+0
RAAN
71.6253°
Arg perigee
127.8852°
Mean anomaly
52.6374°
Rev number
12,792

§ Raw data

COSMOS 2457 (733)1 36112U 09070B   26144.45920228 -.00000038  00000+0  00000+0 0  99982 36112  64.9840  71.6253 0001878 127.8852  52.6374  2.13100931127925

JSON: /api/v1/satellites/36112 · /tle

For live sub-satellite position, see the globe view (requires WebGL).

§ Visibility from observer

Set your observer location to see the next 7 days of passes ≥ 10°. The values pass through the URL so the page stays shareable.

No JS? Fill the form by hand. The geolocation button needs JavaScript.